• Processing (Info)

  • MPEC 2014-W144: 2014 WF364

    The following Minor Planet Electronic Circular may be linked-to from your own Web pages, but must not otherwise be redistributed electronically.

    A form allowing access to any MPEC is at the bottom of this page.


    Read MPEC 2014-W143 Read MPEC 2014-W145


    M.P.E.C. 2014-W144                               Issued 2014 Nov. 29, 02:38 UT
    
         The Minor Planet Electronic Circulars contain information on unusual
             minor planets and routine data on comets.  They are published
       on behalf of Commission 20 of the International Astronomical Union by the
              Minor Planet Center, Smithsonian Astrophysical Observatory,
                              Cambridge, MA 02138, U.S.A.
    
                 Prepared using the Tamkin Foundation Computer Network
    
                                  MPC@CFA.HARVARD.EDU
                URL https://www.minorplanetcenter.net/    ISSN 1523-6714
    
                                      2014 WF364
    
    Observations:
         K14Wa4F* C2014 11 27.15597 03 14 21.58 +19 05 22.3          20.6 VqEW144G96
         K14Wa4F  C2014 11 27.16082 03 14 24.44 +19 05 35.3          21.8 VqEW144G96
         K14Wa4F  C2014 11 27.16567 03 14 27.29 +19 05 47.9          20.5 VqEW144G96
         K14Wa4F  C2014 11 27.17053 03 14 30.11 +19 06 01.1          20.2 VqEW144G96
         K14Wa4F  C2014 11 27.18576403 14 38.63 +19 06 39.8          21.3 RtEW144H01
         K14Wa4F  C2014 11 27.19575203 14 44.41 +19 07 06.0          20.7 RtEW144H01
         K14Wa4F  C2014 11 27.20309903 14 48.66 +19 07 25.6          20.8 RtEW144H01
         K14Wa4F  C2014 11 27.20898303 14 52.06 +19 07 40.9          20.7 RtEW144H01
         K14Wa4F  C2014 11 28.12809103 24 12.80 +19 45 29.9          21.2 RtEW144H01
         K14Wa4F  C2014 11 28.13799103 24 18.48 +19 45 54.5          21.1 RtEW144H01
         K14Wa4F  C2014 11 28.14489303 24 22.42 +19 46 11.8          21.1 RtEW144H01
         K14Wa4F  C2014 11 28.14896303 24 24.75 +19 46 21.9          20.8 RtEW144H01
         K14Wa4F KC2014 11 29.09105 03 33 43.42 +20 21 54.3                oEW144291
         K14Wa4F KC2014 11 29.09287 03 33 44.47 +20 21 59.3          21.4 RoEW144291
         K14Wa4F KC2014 11 29.09471 03 33 45.47 +20 22 03.3          21.7 RoEW144291
    
    Observer details:
    291 LPL/Spacewatch II.  Observer A. F. Tubbiolo.  1.8-m f/2.7 reflector + CCD.
    G96 Mt. Lemmon Survey.  Observer R. A. Kowalski.  Measurers E. J. Christensen,
        A. R. Gibbs, A. D. Grauer, R. E. Hill, J. A. Johnson, R. A. Kowalski,
        S. M. Larson, R. G. Matheny, F. C. Shelly.  1.5-m reflector + CCD.
    H01 Magdalena Ridge Observatory, Socorro.  Observer W. H. Ryan.  2.4-m f/8.9
        reflector + CCD.
    
    Orbital elements:
    2014 WF364                                               Earth MOID = 0.0715 AU
    Epoch 2014 Dec. 9.0 TT = JDT 2457000.5                  MPC
    M   5.49024              (2000.0)            P               Q
    n   0.22820435     Peri.    1.57120     +0.64686276     -0.76259515
    a   2.6520809      Node    48.12334     +0.69961695     +0.59126038
    e   0.5998015      Incl.    0.31914     +0.30348753     +0.26241151
    P   4.32           H   25.6           G   0.15           U   8
    Residuals in seconds of arc
    141127 G96  0.3-  0.3+    141127 H01  0.1+  0.3-    141128 H01  0.1-  0.1+
    141127 G96  0.0   0.2+    141127 H01  0.1-  0.0     141128 H01  0.0   0.1+
    141127 G96  0.2+  0.2-    141127 H01  0.2-  0.1-    141129 291  0.0   0.4-
    141127 G96  0.0   0.0     141128 H01  0.0   0.1+    141129 291  0.3+  0.3+
    141127 H01  0.3+  0.1-    141128 H01  0.0   0.0     141129 291  0.3-  0.0
    
    Ephemeris:
    2014 WF364               a,e,i = 2.65, 0.60, 0                   q = 1.0614
    Date    TT    R. A. (2000) Decl.     Delta      r     Elong.  Phase     V
    2014 10 30    23 27 45.7 -04 20 49   0.1202  1.0810   134.6    40.9    22.8
    ...
    2014 11 14    00 59 02.9 +06 21 28   0.08664 1.0614   144.7    32.6    21.8
    ...
    2014 11 22    02 19 24.3 +14 39 35   0.08300 1.0653   158.0    20.3    21.3
    ...
    2014 11 28    03 22 51.3 +19 40 54   0.08981 1.0747   167.9    11.1    21.2
    2014 11 29    03 32 44.6 +20 19 10   0.09171 1.0767   169.3     9.8    21.2
    2014 11 30    03 42 19.3 +20 53 53   0.09382 1.0790   170.6     8.6    21.2
    ...
    2014 12 06    04 32 09.9 +23 16 45   0.1103  1.0954   176.1     3.5    21.3
    ...
    2014 12 14    05 18 19.2 +24 31 02   0.1405  1.1249   178.2     1.6    21.8
    ...
    2014 12 29    06 03 54.7 +24 44 56   0.2173  1.1997   173.8     5.1    23.1
    
    A. U. Tomatic                (C) Copyright 2014 MPC           M.P.E.C. 2014-W144
    

    Read MPEC 2014-W143 Read MPEC 2014-W145


    MPEC number:

    Enter an MPEC number in one of the following forms:

    • 1997-B01 (the full form)
    • J97B01 (the packed version of the full form)
    • B01 (the abbreviated form)